Regional Weather Roundup
Issued by NWS

Home | Current Version | Previous Version | Text Only | Print | Product List | Glossary Off
Versions: 1 2 3 4 5 6 7 8 9 10 11 12 13 14 15 16 17 18 19 20 21 22 23 24 25 26 27 28 29 30 31 32 33 34 35 36 37 38 39 40 41 42 43 44 45 46 47 48 49 50

932
ASUS44 KJAN 201003
RWRMS

MISSISSIPPI HOURLY WEATHER ROUNDUP
NATIONAL WEATHER SERVICE JACKSON MS
500 AM CDT WED AUG 20 2014

NOTE: "FAIR: INDICATES FEW OR NO CLOUDS BELOW 12,000 FEET WITH NO
SIGNIFICANT WEATHER AND/OR OBSTRUCTIONS TO VISIBILITY.

MSZ001>002-007>008-010>013-018>021-025>028-034>036-201100-
NORTHWEST MISSISSIPPI

CITY           SKY/WX    TMP DP  RH WIND       PRES   REMARKS
CLARKSDALE     FAIR      75  75 100 CALM      29.96R
CLEVELAND      FAIR      73  73 100 SW3       29.96R
GREENWOOD      CLEAR     74  72  93 CALM      29.97R
GREENVILLE       N/A    N/A N/A N/A MISG      29.97R
GRENADA        FAIR      72  70  94 CALM      29.97R
OLIVE BRANCH   CLEAR     73 N/A N/A S6        29.94R
OXFORD         FAIR      73  70  88 CALM      29.98R
TUNICA         SUNNY     72  72 100 S5        29.95R FOG
$$

MSZ003>006-009-014>017-022>024-029>033-037>039-201100-
NORTHEAST MISSISSIPPI

CITY           SKY/WX    TMP DP  RH WIND       PRES   REMARKS
BELMONT        FAIR      74  74  98 SW3       29.98R
COLUMBUS AFB   CLEAR     72  70  92 SW6       29.97R
CORINTH        FAIR      75  72  88 S5        29.95R
GOLDN TRIANGLE CLEAR     73  66  78 SW3       29.98R
STARKVILLE     FAIR      72  70  94 CALM      29.97R
TUPELO         CLEAR     76  73  91 SW5       29.96R
$$

MSZ040-058-201100-
CENTRAL MISSISSIPPI

CITY           SKY/WX    TMP DP  RH WIND       PRES   REMARKS
JACKSON INTL   CLEAR     74  72  93 CALM      29.99R
JACKSON HAWKNS CLEAR     75  71  87 CALM      30.00R
MERIDIAN KEY   CLEAR     69  67  93 CALM      30.00R
MERIDIAN NAS   CLEAR     73  69  87 W6        30.00R
RAYMOND        FAIR      73  68  83 CALM      29.99R HAZE
VICKSBURG      PTCLDY    73  71  93 S3        29.98R
$$

MSZ059>079-201100-
SOUTH MISSISSIPPI

CITY           SKY/WX    TMP DP  RH WIND       PRES   REMARKS
BROOKHAVEN     FAIR      73  72  94 CALM      30.03R
COLUMBIA       FAIR      72  72 100 MISG      30.00R FOG
HATTIESBURG    MOCLDY    77  73  87 SW3       30.01R
MCCOMB         PTCLDY    73  71  93 CALM      30.01R
NATCHEZ        MOCLDY    73  70  88 CALM      30.01R
PINE BELT      MOCLDY    73  70  88 CALM      30.02R
$$

MSZ080>082-201100-
COASTAL MISSISSIPPI

CITY           SKY/WX    TMP DP  RH WIND       PRES   REMARKS
BILOXI         PTCLDY    80  77  89 CALM      30.00R
PASCAGOULA     CLEAR     76  75  97 CALM      30.00R
GULFPORT       PTCLDY    79  76  90 CALM      29.99R
$$



USA.gov is the U.S. government's official web portal to all federal, state and local government web resources and services.